Satellite-Ground Cal/Val Region Overpasses Predictions

Prediction of Satellite NPP Overpassing Cal/Val Region: PacNW

Region Location: (Latitude: 10.00, Longitude: 139.50) to (Latitude: 22.70, Longitude: 165.60).

Table of predicted overpasses for the next 14.0 days since TLE Epoch: 2/15/2019
Interval Starting Time Starting Location Ending Time Ending Location
1 02/16/2019 03:11:08 ( 10.04, 151.88) 02/16/2019 03:14:43 ( 22.66, 148.88)
2 02/16/2019 15:43:00 ( 22.67, 149.12) 02/16/2019 15:46:35 ( 10.05, 146.12)
3 02/17/2019 02:52:05 ( 10.03, 156.65) 02/17/2019 02:55:40 ( 22.66, 153.64)
4 02/17/2019 15:23:58 ( 22.68, 153.88) 02/17/2019 15:27:33 ( 10.05, 150.88)
5 02/18/2019 02:33:03 ( 10.03, 161.41) 02/18/2019 02:36:38 ( 22.65, 158.41)
6 02/18/2019 15:04:55 ( 22.68, 158.64) 02/18/2019 15:08:31 ( 10.00, 155.63)
7 02/19/2019 02:14:43 ( 12.55, 165.59) 02/19/2019 02:17:36 ( 22.70, 163.15)
8 02/19/2019 03:55:30 ( 10.03, 140.79) 02/19/2019 03:57:04 ( 15.55, 139.51)
9 02/19/2019 14:45:53 ( 22.69, 163.40) 02/19/2019 14:49:29 ( 10.01, 160.39)
10 02/20/2019 03:36:28 ( 10.02, 145.55) 02/20/2019 03:40:04 ( 22.70, 142.54)
11 02/20/2019 14:29:53 ( 11.96, 165.59) 02/20/2019 14:30:26 ( 10.02, 165.15)
12 02/20/2019 16:08:20 ( 22.69, 142.79) 02/20/2019 16:11:56 ( 10.01, 139.77)
13 02/21/2019 03:17:25 ( 10.01, 150.31) 02/21/2019 03:21:01 ( 22.69, 147.30)
14 02/21/2019 15:49:18 ( 22.70, 147.55) 02/21/2019 15:52:54 ( 10.02, 144.53)
15 02/22/2019 02:58:23 ( 10.01, 155.07) 02/22/2019 03:01:59 ( 22.69, 152.06)
16 02/22/2019 15:30:16 ( 22.64, 152.29) 02/22/2019 15:33:51 ( 10.02, 149.29)
17 02/23/2019 02:39:20 ( 10.00, 159.83) 02/23/2019 02:42:56 ( 22.68, 156.82)
18 02/23/2019 15:11:14 ( 22.65, 157.06) 02/23/2019 15:14:49 ( 10.03, 154.05)
19 02/24/2019 02:20:19 ( 10.05, 164.58) 02/24/2019 02:23:54 ( 22.67, 161.58)
20 02/24/2019 14:52:12 ( 22.66, 161.82) 02/24/2019 14:55:47 ( 10.03, 158.81)
21 02/25/2019 03:42:46 ( 10.06, 143.97) 02/25/2019 03:46:21 ( 22.68, 140.96)
22 02/25/2019 14:34:17 ( 18.67, 165.60) 02/25/2019 14:36:44 ( 10.04, 163.58)
23 02/25/2019 16:14:39 ( 22.65, 141.20) 02/25/2019 16:16:38 ( 15.67, 139.51)
24 02/26/2019 03:23:44 ( 10.05, 148.73) 02/26/2019 03:27:19 ( 22.67, 145.73)
25 02/26/2019 15:55:37 ( 22.66, 145.96) 02/26/2019 15:59:12 ( 10.04, 142.96)
26 02/27/2019 03:04:41 ( 10.04, 153.49) 02/27/2019 03:08:16 ( 22.67, 150.49)
27 02/27/2019 15:36:34 ( 22.66, 150.72) 02/27/2019 15:40:09 ( 10.04, 147.72)
28 02/28/2019 02:45:39 ( 10.04, 158.25) 02/28/2019 02:49:14 ( 22.66, 155.25)
29 02/28/2019 15:17:32 ( 22.67, 155.48) 02/28/2019 15:21:07 ( 10.05, 152.48)
30 03/01/2019 02:26:36 ( 10.03, 163.01) 03/01/2019 02:30:11 ( 22.66, 160.01)


NCC Satellite Cal/Val Overpasses Prediction Service
